Date String (YYYY-MM-DD hh:mm:ss) UTC,Instrument flags,Ambient pressure (hPa),Sample flow (lpm),Bypass flow (lpm),Sample temperature (°C),Ambient temperature (°C),ASC tube jacket temperature (°C),LED temperature (°C),Box temperature (°C),Sample RH (%),Span deviation,Mass concentration (μg/m³),Mass concentration (μg/m³),Mass concentration (μg/m³)
DateTimeUTC,F1_M11,P_M11,Q1_M11,Q2_M11,T1_M11,T2_M11,T3_M11,T4_M11,T5_M11,U1_M11,ZSPAN_M11,X0_M11,X2_M11,X1_M11
2021-12-15 07:00:00,,0812.8,5.00,0.00,26.7,25.8,00.0,35.7,28.4,08.7,-001.2,0024.27,0005.58,0003.71
2021-12-15 07:01:00,,0812.8,5.01,0.00,26.7,25.8,00.0,35.7,28.3,08.7,-001.3,0025.92,0005.58,0003.72
2021-12-15 07:02:00,,0812.8,5.01,0.00,26.7,25.8,00.0,35.7,28.3,08.7,-001.5,0026.98,0005.62,0003.77
2021-12-15 07:03:00,,0812.8,5.00,0.00,26.6,25.8,00.0,35.7,28.3,08.7,-001.9,0027.13,0005.63,0003.80
2021-12-15 07:04:00,,0812.7,4.99,0.00,26.6,25.8,00.0,35.7,28.3,08.7,-002.0,0027.86,0005.65,0003.81
2021-12-15 07:05:00,,0812.7,5.00,0.00,26.6,25.7,00.0,35.7,28.3,08.7,-002.8,0026.90,0005.72,0003.83
2021-12-15 07:06:00,,0812.7,5.00,0.00,26.6,25.7,00.0,35.7,28.3,08.7,-001.8,0026.47,0005.69,0003.83
2021-12-15 07:07:00,,0812.7,5.01,0.00,26.6,25.7,00.0,35.7,28.3,08.8,0000.0,0025.13,0005.52,0003.79
2021-12-15 07:08:00,,0812.7,5.01,0.00,26.6,25.7,00.0,35.7,28.3,08.8,0000.0,0023.83,0005.43,0003.75
2021-12-15 07:09:00,,0812.7,4.99,0.00,26.6,25.7,00.0,35.7,28.3,08.7,0000.0,0022.70,0005.45,0003.74
2021-12-15 07:10:00,,0812.6,5.00,0.00,26.6,25.7,00.0,35.6,28.3,08.8,0000.0,0023.50,0005.47,0003.79
2021-12-15 07:11:00,,0812.6,4.99,0.00,26.6,25.7,00.0,35.6,28.3,08.8,0000.0,0022.93,0005.52,0003.85
2021-12-15 07:12:00,,0812.6,5.01,0.00,26.6,25.7,00.0,35.6,28.3,08.8,0000.0,0022.05,0005.63,0003.93
2021-12-15 07:13:00,,0812.5,5.00,0.00,26.6,25.8,00.0,35.6,28.3,08.8,0000.0,0022.32,0005.78,0003.99
2021-12-15 07:14:00,,0812.5,4.99,0.00,26.6,25.8,00.0,35.6,28.4,08.8,0000.0,0024.60,0005.94,0004.05
2021-12-15 07:15:00,,0812.4,5.00,0.00,26.6,25.8,00.0,35.6,28.4,08.8,0000.0,0026.17,0006.01,0004.08
2021-12-15 07:16:00,,0812.5,5.02,0.00,26.6,25.7,00.0,35.6,28.4,08.8,0001.6,0026.60,0006.05,0004.10
2021-12-15 07:17:00,,0812.4,4.99,0.00,26.6,25.7,00.0,35.6,28.4,08.8,0003.5,0026.83,0006.09,0004.14
2021-12-15 07:18:00,,0812.4,5.01,0.00,26.6,25.7,00.0,35.6,28.4,08.8,0003.1,0026.79,0006.19,0004.19
2021-12-15 07:19:00,,0812.4,4.99,0.00,26.6,25.7,00.0,35.6,28.4,08.8,0000.8,0026.50,0006.26,0004.24
2021-12-15 07:20:00,,0812.4,5.01,0.00,26.6,25.7,00.0,35.6,28.4,08.8,0000.0,0027.58,0006.28,0004.29
2021-12-15 07:21:00,,0812.3,4.99,0.00,26.6,25.7,00.0,35.6,28.3,08.8,0000.0,0027.70,0006.40,0004.37
2021-12-15 07:22:00,,0812.3,4.99,0.00,26.6,25.7,00.0,35.6,28.3,08.8,0000.0,0027.13,0006.45,0004.41
2021-12-15 07:23:00,,0812.3,5.00,0.00,26.6,25.7,00.0,35.6,28.4,08.8,0000.0,0025.87,0006.42,0004.42
2021-12-15 07:24:00,,0812.3,5.00,0.00,26.6,25.7,00.0,35.6,28.3,08.8,0000.0,0025.12,0006.38,0004.40
2021-12-15 07:25:00,,0812.3,5.00,0.00,26.6,25.7,00.0,35.6,28.3,08.8,0000.0,0023.12,0006.36,0004.38
2021-12-15 07:26:00,,0812.3,5.00,0.00,26.6,25.7,00.0,35.6,28.3,08.8,0000.0,0021.57,0006.35,0004.38
2021-12-15 07:27:00,,0812.3,5.00,0.00,26.6,25.7,00.0,35.6,28.3,08.7,0000.0,0022.00,0006.24,0004.35
2021-12-15 07:28:00,,0812.3,5.00,0.00,26.6,25.7,00.0,35.6,28.3,08.7,0000.0,0020.82,0006.12,0004.28
2021-12-15 07:29:00,,0812.3,5.00,0.00,26.6,25.7,00.0,35.6,28.2,08.8,0000.0,0020.04,0006.00,0004.21
2021-12-15 07:30:00,,0812.2,5.01,0.00,26.5,25.6,00.0,35.6,28.2,08.7,0000.0,0021.09,0005.87,0004.14
2021-12-15 07:31:00,,0812.1,4.98,0.00,26.5,25.6,00.0,35.6,28.2,08.7,0000.0,0020.00,0005.70,0004.02
2021-12-15 07:32:00,,0812.2,5.01,0.00,26.5,25.6,00.0,35.5,28.2,08.8,0000.9,0019.19,0005.57,0003.90
2021-12-15 07:33:00,,0812.2,5.00,0.00,26.5,25.6,00.0,35.5,28.2,08.8,0002.3,0019.14,0005.46,0003.81
2021-12-15 07:34:00,,0812.1,5.00,0.00,26.5,25.6,00.0,35.5,28.2,08.8,0001.4,0019.33,0005.46,0003.76
2021-12-15 07:35:00,,0812.2,5.01,0.00,26.5,25.6,00.0,35.5,28.2,08.8,0000.6,0018.92,0005.38,0003.71
2021-12-15 07:36:00,,0812.1,4.99,0.00,26.5,25.6,00.0,35.5,28.2,08.8,0000.7,0019.55,0005.28,0003.62
2021-12-15 07:37:00,,0812.2,4.99,0.00,26.5,25.6,00.0,35.5,28.2,08.8,0000.0,0018.92,0005.10,0003.52
2021-12-15 07:38:00,,0812.1,5.00,0.00,26.5,25.6,00.0,35.5,28.2,08.8,0000.0,0017.93,0004.97,0003.44
2021-12-15 07:39:00,,0812.0,5.00,0.00,26.5,25.6,00.0,35.5,28.1,08.8,0000.0,0018.81,0004.96,0003.41
2021-12-15 07:40:00,,0812.0,4.98,0.00,26.4,25.5,00.0,35.5,28.1,08.8,0000.0,0019.27,0004.91,0003.36
2021-12-15 07:41:00,,0812.0,5.01,0.00,26.4,25.5,00.0,35.5,28.2,08.8,0000.0,0018.01,0004.85,0003.32
2021-12-15 07:42:00,,0812.0,5.01,0.00,26.4,25.5,00.0,35.5,28.1,08.8,0000.0,0017.93,0004.90,0003.34
2021-12-15 07:43:00,,0812.0,5.02,0.00,26.4,25.5,00.0,35.5,28.1,08.8,0000.0,0018.81,0004.90,0003.36
2021-12-15 07:44:00,,0812.0,4.99,0.00,26.4,25.5,00.0,35.5,28.1,08.8,0000.0,0018.26,0004.88,0003.34
2021-12-15 07:45:00,,0811.8,4.99,0.00,26.4,25.5,00.0,35.5,28.1,08.8,0000.0,0018.30,0004.80,0003.30
2021-12-15 07:46:00,,0811.9,5.01,0.00,26.4,25.5,00.0,35.5,28.1,08.8,0000.0,0018.78,0004.80,0003.28
2021-12-15 07:47:00,,0811.9,5.00,0.00,26.4,25.5,00.0,35.4,28.1,08.9,0000.0,0018.46,0004.77,0003.30
2021-12-15 07:48:00,,0811.8,5.00,0.00,26.4,25.5,00.0,35.4,28.1,08.8,0000.0,0018.46,0004.77,0003.33
2021-12-15 07:49:00,,0811.8,5.00,0.00,26.4,25.5,00.0,35.4,28.2,08.8,0000.0,0019.55,0004.82,0003.36
2021-12-15 07:50:00,,0811.8,5.00,0.00,26.4,25.5,00.0,35.4,28.2,08.9,0000.0,0019.30,0004.90,0003.42
2021-12-15 07:51:00,,0811.9,5.00,0.00,26.4,25.5,00.0,35.4,28.1,08.9,0000.0,0019.55,0004.95,0003.48
2021-12-15 07:52:00,,0811.9,5.00,0.00,26.4,25.5,00.0,35.4,28.1,08.8,0000.0,0019.93,0004.95,0003.51
2021-12-15 07:53:00,,0811.8,5.00,0.00,26.4,25.5,00.0,35.4,28.1,08.9,0000.0,0019.88,0004.97,0003.54
2021-12-15 07:54:00,,0811.9,4.99,0.00,26.4,25.5,00.0,35.4,28.1,08.9,0000.0,0019.14,0005.00,0003.58
2021-12-15 07:55:00,,0811.8,5.00,0.00,26.4,25.5,00.0,35.4,28.1,08.9,0000.0,0018.80,0005.04,0003.63
2021-12-15 07:56:00,,0811.9,5.01,0.00,26.3,25.5,00.0,35.4,28.1,08.9,0000.0,0019.14,0005.12,0003.69
2021-12-15 07:57:00,,0811.8,5.01,0.00,26.3,25.5,00.0,35.4,28.1,08.9,0000.0,0018.74,0005.16,0003.74
2021-12-15 07:58:00,,0811.8,5.00,0.00,26.3,25.5,00.0,35.4,28.1,08.9,0000.0,0019.33,0005.21,0003.79
2021-12-15 07:59:00,,0811.9,5.00,0.00,26.3,25.4,00.0,35.4,28.0,08.9,0000.0,0019.64,0005.36,0003.82
